Weather reports worldwide

Advertisment
Sangley Point, Philippines (98428): temperature & dewpoint: 04.12.2019 05:00:00 - 10.12.2019 05:00:00 (PHT)Sangley Point, Philippines (98428): wind speed: 04.12.2019 05:00:00 - 10.12.2019 05:00:00 (PHT)Sangley Point, Philippines (98428): wind direction: 04.12.2019 05:00:00 - 10.12.2019 05:00:00 (PHT)Sangley Point, Philippines (98428): reduced air pressure: 04.12.2019 05:00:00 - 10.12.2019 05:00:00 (PHT)Sangley Point, Philippines (98428): visibility: 04.12.2019 05:00:00 - 10.12.2019 05:00:00 (PHT)
Date & Time tt [°C] td [°C] ff [km/h] ff [kn] dd ppp [hPa] vv [km]
10.12.2019 05:00:00 - - - - - - -
10.12.2019 04:00:00 - - - - - - -
10.12.2019 03:00:00 - - - - - - -
10.12.2019 02:00:00 - - - - - - -
10.12.2019 01:00:00 - - - - - - -
10.12.2019 00:00:00 - - - - - - -
09.12.2019 23:00:00 26,3 22,9 11 6 E 1011,9 8
09.12.2019 22:00:00 - - - - - - -
09.12.2019 21:00:00 - - - - - - -
09.12.2019 20:00:00 27,1 23,9 14 8 E 1011,4 8
09.12.2019 19:00:00 - - - - - - -
09.12.2019 18:00:00 - - - - - - -
09.12.2019 17:00:00 27,8 23,8 11 6 E 1010,2 15
09.12.2019 16:00:00 - - - - - - -
09.12.2019 15:00:00 - - - - - - -
09.12.2019 14:00:00 29,7 25,4 11 6 E 1010,3 12
09.12.2019 13:00:00 - - - - - - -
09.12.2019 12:00:00 - - - - - - -
09.12.2019 11:00:00 28,6 22,9 11 6 WNW 1013,3 12
09.12.2019 10:00:00 - - - - - - -
09.12.2019 09:00:00 - - - - - - -
09.12.2019 08:00:00 26,4 22,3 11 6 NNW 1013,3 12
09.12.2019 07:00:00 - - - - - - -
09.12.2019 06:00:00 - - - - - - -
09.12.2019 05:00:00 25,1 21,6 7 4 E 1011,9 8
09.12.2019 04:00:00 - - - - - - -
09.12.2019 03:00:00 - - - - - - -
09.12.2019 02:00:00 24,4 21,8 4 2 E 1012,5 9
09.12.2019 01:00:00 - - - - - - -
09.12.2019 00:00:00 - - - - - - -
08.12.2019 23:00:00 25,5 22,2 4 2 S 1013,4 9
08.12.2019 22:00:00 - - - - - - -
08.12.2019 21:00:00 - - - - - - -
08.12.2019 20:00:00 27,0 22,5 14 8 E 1013,2 9
08.12.2019 19:00:00 - - - - - - -
08.12.2019 18:00:00 - - - - - - -
08.12.2019 17:00:00 29,0 24,2 7 4 NE 1011,3 10
08.12.2019 16:00:00 - - - - - - -
08.12.2019 15:00:00 - - - - - - -
08.12.2019 14:00:00 30,7 24,6 7 4 S 1011,3 10
08.12.2019 13:00:00 - - - - - - -
08.12.2019 12:00:00 - - - - - - -
08.12.2019 11:00:00 29,9 23,9 7 4 NW 1013,3 10
08.12.2019 10:00:00 - - - - - - -
08.12.2019 09:00:00 - - - - - - -
08.12.2019 08:00:00 26,8 22,6 11 6 NNW 1013,3 12
08.12.2019 07:00:00 - - - - - - -
08.12.2019 06:00:00 - - - - - - -
08.12.2019 05:00:00 25,9 23,2 7 4 NW 1011,6 9
08.12.2019 04:00:00 - - - - - - -
08.12.2019 03:00:00 - - - - - - -
08.12.2019 02:00:00 26,0 23,3 7 4 NW 1011,4 9
08.12.2019 01:00:00 - - - - - - -
08.12.2019 00:00:00 - - - - - - -
07.12.2019 23:00:00 26,5 23,7 7 4 NE 1012,3 9
07.12.2019 22:00:00 - - - - - - -
07.12.2019 21:00:00 - - - - - - -
07.12.2019 20:00:00 27,8 23,9 11 6 E 1011,4 9
07.12.2019 19:00:00 - - - - - - -
07.12.2019 18:00:00 - - - - - - -
07.12.2019 17:00:00 29,3 25,0 11 6 SSE 1009,6 10
07.12.2019 16:00:00 - - - - - - -
07.12.2019 15:00:00 - - - - - - -
07.12.2019 14:00:00 31,0 25,1 14 8 NW 1009,4 12
07.12.2019 13:00:00 - - - - - - -
07.12.2019 12:00:00 - - - - - - -
07.12.2019 11:00:00 29,1 25,3 14 8 NW 1012,1 12
07.12.2019 10:00:00 - - - - - - -
07.12.2019 09:00:00 - - - - - - -
07.12.2019 08:00:00 27,6 23,2 11 6 NNW 1012,2 12
07.12.2019 07:00:00 - - - - - - -
07.12.2019 06:00:00 - - - - - - -
07.12.2019 05:00:00 26,1 23,5 7 4 NNW 1010,3 8
07.12.2019 04:00:00 - - - - - - -
07.12.2019 03:00:00 - - - - - - -
07.12.2019 02:00:00 26,9 23,8 14 8 NNW 1010,3 8
07.12.2019 01:00:00 - - - - - - -
07.12.2019 00:00:00 - - - - - - -
06.12.2019 23:00:00 27,9 24,9 11 6 NNW 1011,2 8
06.12.2019 22:00:00 - - - - - - -
06.12.2019 21:00:00 - - - - - - -
06.12.2019 20:00:00 28,2 25,0 7 4 WSW 1010,5 8
06.12.2019 19:00:00 - - - - - - -
06.12.2019 18:00:00 - - - - - - -
06.12.2019 17:00:00 29,8 25,4 11 6 SSW 1008,8 15
06.12.2019 16:00:00 - - - - - - -
06.12.2019 15:00:00 - - - - - - -
06.12.2019 14:00:00 31,1 25,2 7 4 W 1009,0 14
06.12.2019 13:00:00 - - - - - - -
06.12.2019 12:00:00 - - - - - - -
06.12.2019 11:00:00 30,0 25,7 14 8 NW 1011,3 12
06.12.2019 10:00:00 - - - - - - -
06.12.2019 09:00:00 - - - - - - -
06.12.2019 08:00:00 27,2 25,0 4 2 ESE 1011,3 10
06.12.2019 07:00:00 - - - - - - -
06.12.2019 06:00:00 - - - - - - -
06.12.2019 05:00:00 25,5 23,6 4 2 SE 1009,3 8
06.12.2019 04:00:00 - - - - - - -
06.12.2019 03:00:00 - - - - - - -
06.12.2019 02:00:00 25,9 23,5 0 0 N 1010,3 8
06.12.2019 01:00:00 - - - - - - -
06.12.2019 00:00:00 - - - - - - -
05.12.2019 23:00:00 26,3 24,6 14 8 ESE 1010,5 8
05.12.2019 22:00:00 - - - - - - -
05.12.2019 21:00:00 - - - - - - -
05.12.2019 20:00:00 27,9 25,1 4 2 ESE 1010,2 8
05.12.2019 19:00:00 - - - - - - -
05.12.2019 18:00:00 - - - - - - -
05.12.2019 17:00:00 30,3 25,2 7 4 NNW 1008,5 12
05.12.2019 16:00:00 - - - - - - -
05.12.2019 15:00:00 - - - - - - -
05.12.2019 14:00:00 31,5 26,9 14 8 NW 1009,2 14
05.12.2019 13:00:00 - - - - - - -
05.12.2019 12:00:00 - - - - - - -
05.12.2019 11:00:00 30,6 26,6 11 6 NW 1011,8 10
05.12.2019 10:00:00 - - - - - - -
05.12.2019 09:00:00 - - - - - - -
05.12.2019 08:00:00 27,4 24,6 4 2 NNE 1011,4 10
05.12.2019 07:00:00 - - - - - - -
05.12.2019 06:00:00 - - - - - - -
05.12.2019 05:00:00 25,2 23,6 4 2 E 1009,7 8
05.12.2019 04:00:00 - - - - - - -
05.12.2019 03:00:00 - - - - - - -
05.12.2019 02:00:00 26,0 24,0 7 4 E 1010,0 8
05.12.2019 01:00:00 - - - - - - -
05.12.2019 00:00:00 - - - - - - -
04.12.2019 23:00:00 26,9 24,2 11 6 SE 1010,2 8
04.12.2019 22:00:00 - - - - - - -
04.12.2019 21:00:00 - - - - - - -
04.12.2019 20:00:00 27,9 24,7 11 6 E 1009,6 8
04.12.2019 19:00:00 - - - - - - -
04.12.2019 18:00:00 - - - - - - -
04.12.2019 17:00:00 30,0 25,6 14 8 E 1007,2 14
04.12.2019 16:00:00 - - - - - - -
04.12.2019 15:00:00 - - - - - - -
04.12.2019 14:00:00 31,9 26,4 14 8 E 1007,5 14
04.12.2019 13:00:00 - - - - - - -
04.12.2019 12:00:00 - - - - - - -
04.12.2019 11:00:00 30,9 25,8 14 8 ENE 1009,1 14
04.12.2019 10:00:00 - - - - - - -
04.12.2019 09:00:00 - - - - - - -
04.12.2019 08:00:00 28,4 24,6 18 10 E 1008,3 12
04.12.2019 07:00:00 - - - - - - -
04.12.2019 06:00:00 - - - - - - -
04.12.2019 05:00:00 27,0 23,6 22 12 ENE 1006,3 8

tt = temperature
td = dewpoint
ff = wind speed
dd = wind direction
ppp = reduced air pressure
vv = visibility

Next stations